Location: Chevoux
(46.3801°N, 4.9476°E)
Time: 16:27:50
(UTC+00:00)

Envisat - Pass Details

Date: 08 December 2021
Orbit: 764 x 766 km, 98.2° (Epoch: 16 January)

Event Time Altitude Azimuth Distance (km) Brightness Sun altitude
Rises 03:04:11 0° 35° (NE) 3,242 6.7 -41.5°
Reaches altitude 10° 03:08:58 10° 75° (ENE) 2,306 6.1 -40.7°
Maximum altitude 03:09:49 10° 85° (E) 2,278 6.1 -40.5°
Drops below altitude 10° 03:10:40 10° 95° (E) 2,303 6.1 -40.4°
Sets 03:15:24 0° 136° (SE) 3,220 6.6 -39.6°
